Location: Chuathbaluk
(61.5726°N, 159.2454°W)
Time: 02:54:29
(UTC+00:00)

Altair - Pass Details

Date: 04 December 2020
Orbit: 1501 x 1682 km, 47.2° (Epoch: 23 January)

Event Time Altitude Azimuth Distance (km) Brightness Sun altitude
Rises 04:25:18 0° 181° (S) 4,741 10.2 -19.3°
Reaches altitude 10° 04:30:48 10° 156° (SSE) 3,721 9.4 -19.9°
Maximum altitude 04:34:21 13° 133° (SE) 3,486 9.0 -20.3°
Enters shadow 04:35:09 13° 128° (SE) 3,493 9.0 -20.4°
